Zurück zum Katalog

NOAA 17 DEB

AktivPO
NORAD 48765·DEBRIS·🇺🇸 United States

Gestartet Jun 24, 2002 von Vandenberg Space Force Base

Loading…

Nächste Überflüge (nächste 24 Stunden)

TLE

AktuellSource: Space-Track

Epoche: Sep 14, 2026, 01:09 UTC

1 48765U 02032DA  26257.04839046  .00018855  00000-0  18761-2 0  9995
2 48765  98.6882 294.7582 0008202  25.3863 334.7754 14.91681844286880

Verfolge NOAA 17 DEB in Echtzeit mit AllMySat

Download on the App Store